Simultaneous Nadir Overpasses (SNOs) Predictions

Prediction of SNOs between AQUA and NPP Satellite Orbit:

Table of predicted SNOs for the next 14.0 days since TLE Epoch: 12/27/2014
Index Date (AQUA) Time (AQUA) Lat,Lon (AQUA) SZA (AQUA ) Date (NPP) Time (NPP) Lat,Lon (NPP) SZA (NPP ) Distance(km) Time Diff (sec)
1 12/29/2014 01:31:06 -57.22,-165.92 42.85 12/29/2014 01:30:40 -57.23,-165.91 42.81 0.32 26
2 12/29/2014 02:18:06 65.55, 7.86 130.02 12/29/2014 02:18:54 65.56, 7.90 129.94 1.98 48
3 12/31/2014 17:46:27 -61.08, -47.57 46.11 12/31/2014 17:46:22 -61.08, -47.54 46.12 1.81 5
4 12/31/2014 18:34:02 67.33, 125.58 128.35 12/31/2014 18:35:12 67.34, 125.62 128.24 1.98 70
5 01/03/2015 09:15:30 53.69,-103.63 139.94 01/03/2015 09:14:35 53.69,-103.64 140.05 0.53 55
6 01/03/2015
